[[{"header":{"parameterUnit":"m.s-1","parameterCategory":1,"la1":30.2991,"la2":30.254,"lo1":-89.0895,"lo2":-89.0444,"dy":0.0017,"dx":0.0017,"nx":28,"ny":28,"refTime":"2024-06-06T03:00:00:Z","depth":0,"parameterNumber":2,"parameterNumberName":"U-component_of_WINDS"},"data":[0,0,0,0,0,0,0,0,0,0,0,0,0,0,0,0,0,0,0,0,0,0,0,0,0,0,0,0,0,0,0,0,0,0,0,0,0,0,0,0,0,0,0,0,0,0,0,0,0,0,0,0,0,0,0,0,0,0,1.3847,1.3848,0,1.3954,1.3955,1.3956,1.3974,1.3973,1.3972,1.3971,1.4083,1.4086,1.409,0,0,0,0,0,0,0,0,0,0,0,0,0,1.3658,1.3661,1.3847,1.3848,1.3849,1.3954,1.3955,1.3957,1.3974,1.3973,1.3972,1.3971,1.4081,1.4086,1.4091,0,0,0,0,0,0,0,0,0,0,0,0,0,1.375,1.3663,1.3846,1.3871,1.3874,1.3953,1.3955,1.3957,1.3974,1.3973,1.3972,1.397,1.408,1.4086,1.4091,1.4155,0,0,1.4109,1.4111,0,0,0,0,0,0,0,0,1.3745,1.3757,1.3866,1.3869,1.3873,1.3949,1.393,1.4023,1.3975,1.3936,1.3971,1.397,1.404,1.4049,1.4072,1.416,1.4165,1.4109,1.4113,1.4115,1.4117,0,0,0,0,0,0,0,1.3738,1.3753,1.3889,1.3867,1.3872,1.3876,1.3888,1.3947,1.3995,1.3939,1.3941,1.3953,1.4041,1.4066,1.4075,1.4166,1.4109,1.4114,1.4118,1.412,1.4311,1.4313,0,0,0,0,0,0,1.3728,1.3747,1.3886,1.3892,1.3804,1.3881,1.3894,1.3926,1.3994,1.4003,1.3954,1.3954,1.4057,1.4068,1.4079,1.4156,1.4115,1.4121,1.4124,1.431,1.4311,1.4313,0,0,0,0,0,0,1.3723,1.374,1.3881,1.382,1.3839,1.3886,1.3922,1.3929,1.3954,1.4005,1.4014,1.3971,1.4056,1.407,1.4135,1.416,1.4123,1.4129,1.4308,1.431,1.4312,1.4313,0,0,0,0,0,0,1.3718,1.3738,1.3763,1.3821,1.3842,1.3936,1.3923,1.3932,1.3964,1.3964,1.4023,1.4032,1.4056,1.4127,1.4141,1.4168,1.4133,1.4306,1.4309,1.4312,1.4311,1.4315,1.4319,0,0,0,0,0,1.3711,1.3759,1.3764,1.378,1.3873,1.3938,1.395,1.3976,1.3965,1.399,1.4023,1.403,1.4156,1.4133,1.415,1.4178,1.4304,1.4308,1.4311,1.4309,1.4314,1.4318,0,0,0,0,0,0,1.3704,1.3767,1.3773,1.3841,1.3884,1.394,1.3973,1.3981,1.4028,1.4027,1.4059,1.4072,1.4135,1.4163,1.4137,1.4243,1.4229,1.4236,1.4222,1.4227,1.4231,1.4222,1.4138,0,0,0,0,0,1.371,1.3756,1.381,1.3864,1.3885,1.3925,1.3954,1.3971,1.4017,1.4035,1.4073,1.4117,1.4167,1.4199,1.4247,1.4315,1.4328,1.4343,1.4347,1.435,1.4355,1.4393,1.4399,1.4325,1.4325,1.4325,0,0,1.3723,1.3763,1.3791,1.3864,1.3899,1.3946,1.394,1.3991,1.4027,1.4043,1.4106,1.4135,1.4187,1.4253,1.4285,1.4279,1.4379,1.4355,1.4357,1.4361,1.4397,1.4404,1.441,1.4328,1.4327,1.4327,0,0,1.3771,1.3807,1.3856,1.3891,1.3944,1.397,1.3981,1.4037,1.4056,1.412,1.4133,1.4176,1.4261,1.4297,1.4326,1.4387,1.4395,1.4402,1.4422,1.4458,1.4464,1.4469,1.449,1.4497,1.4408,1.4408,1.4408,0,1.3781,1.3853,1.388,1.393,1.3961,1.3978,1.4027,1.406,1.4126,1.4148,1.4141,1.4246,1.4283,1.4357,1.4372,1.4395,1.4409,1.4395,1.4461,1.4466,1.4472,1.4492,1.45,1.4408,1.4408,1.4408,1.4408,0,1.3862,1.3911,1.3945,1.4007,1.4042,1.4092,1.4127,1.4159,1.4173,1.42,1.4264,1.4308,1.4365,1.4384,1.4399,1.4461,1.4455,1.4454,1.4441,1.4479,1.4498,1.4506,1.4409,1.4409,1.4409,1.4409,0,0,1.3907,1.3984,1.3996,1.4024,1.4083,1.4122,1.4172,1.4227,1.4254,1.4299,1.4342,1.4413,1.4411,1.4445,1.4463,1.4495,1.4539,1.449,1.4492,1.4496,1.4609,1.4608,1.4617,1.4545,1.4546,1.4548,1.4604,0,1.3961,1.4051,1.4077,1.4152,1.4198,1.4214,1.4258,1.4299,1.4325,1.4368,1.4398,1.4447,1.4442,1.4462,1.4494,1.4527,1.4562,1.4523,1.4584,1.4586,1.4569,1.4627,1.4627,1.4678,1.4612,1.4613,1.4614,0,1.4036,1.4082,1.4161,1.4214,1.4234,1.4273,1.4325,1.4366,1.4413,1.443,1.4466,1.4482,1.4535,1.4519,1.4592,1.4565,1.4592,1.4612,1.4614,1.462,1.4601,1.4633,1.4695,1.4702,1.4626,1.4625,1.4624,0,1.406,1.4141,1.4199,1.4223,1.4286,1.4313,1.434,1.4386,1.4417,1.4463,1.4483,1.4535,1.4563,1.4602,1.4632,1.4618,1.4702,1.4689,1.4717,1.4716,1.4733,1.4732,1.4799,1.4752,1.4752,1.4752,1.4752,0,1.4117,1.4165,1.4211,1.4246,1.43,1.433,1.4382,1.4411,1.4451,1.4492,1.451,1.4548,1.4585,1.4628,1.4652,1.4708,1.4721,1.4736,1.4741,1.4734,1.4731,1.4751,1.4747,1.4754,1.4754,1.4753,1.4753,0,1.4152,1.4185,1.4249,1.4303,1.4318,1.4355,1.4402,1.4437,1.4464,1.4515,1.4529,1.4572,1.4624,1.4657,1.4723,1.4739,1.48,1.4805,1.4784,1.4786,1.4812,1.4809,1.4893,1.4905,1.4851,1.4852,1.4852,0,1.4186,1.4223,1.4281,1.4309,1.4337,1.4383,1.4414,1.4445,1.4477,1.4533,1.4561,1.4614,1.4658,1.474,1.4777,1.4827,1.4833,1.4859,1.4841,1.4831,1.4832,1.4829,1.4832,1.4862,1.4862,1.4862,1.4863,0,1.4241,1.4255,1.43,1.435,1.4387,1.4428,1.447,1.4492,1.453,1.4565,1.4618,1.4652,1.4719,1.4771,1.4824,1.4853,1.4864,1.4868,1.4877,1.4869,1.4855,1.4862,1.4791,1.4866,1.4866,1.4865,1.4865,1.4865,1.4276,1.4309,1.4355,1.4404,1.4438,1.4476,1.4511,1.4542,1.4586,1.4643,1.4659,1.4713,1.4759,1.4832,1.4862,1.4905,1.4902,1.4915,1.4918,1.4921,1.492,1.4849,1.4915,1.4915,1.4915,1.4915,1.4915,0,1.4331,1.4361,1.4406,1.4463,1.4501,1.4508,1.4554,1.4585,1.4633,1.4674,1.4717,1.4777,1.4827,1.4868,1.492,1.4946,1.4953,1.4959,1.4957,1.4963,1.4921,1.4907,1.4953,1.4953,1.4953,1.4953,1.4953,1.4953,1.4364,1.442,1.444,1.4513,1.4543,1.4596,1.4622,1.4657,1.469,1.4756,1.4797,1.4824,1.4865,1.4919,1.4966,1.4976,1.4994,1.4999,1.5011,1.497,1.4966,1.4962,1.4949,1.5003,1.5003,1.5049,1.5049,1.505]},{"header":{"parameterUnit":"m.s-1","parameterCategory":1,"la1":30.2991,"la2":30.254,"lo1":-89.0895,"lo2":-89.0444,"dy":0.0017,"dx":0.0017,"nx":28,"ny":28,"refTime":"2024-06-06T03:00:00:Z","depth":0,"parameterNumber":3,"parameterNumberName":"V-component_of_WINDS"},"data":[0,0,0,0,0,0,0,0,0,0,0,0,0,0,0,0,0,0,0,0,0,0,0,0,0,0,0,0,0,0,0,0,0,0,0,0,0,0,0,0,0,0,0,0,0,0,0,0,0,0,0,0,0,0,0,0,0,0,3.5853,3.5853,0,3.5804,3.5804,3.5803,3.5776,3.5776,3.5776,3.5776,3.5719,3.5717,3.5716,0,0,0,0,0,0,0,0,0,0,0,0,0,3.5918,3.5917,3.5853,3.5853,3.5852,3.5804,3.5804,3.5803,3.5776,3.5776,3.5776,3.5776,3.5719,3.5718,3.5716,0,0,0,0,0,0,0,0,0,0,0,0,0,3.5881,3.5917,3.5853,3.5833,3.5831,3.5804,3.5804,3.5803,3.5776,3.5776,3.5776,3.5776,3.572,3.5718,3.5716,3.5704,0,0,3.5709,3.5708,0,0,0,0,0,0,0,0,3.5883,3.5879,3.5837,3.5834,3.5832,3.5796,3.5806,3.5769,3.5776,3.5797,3.5776,3.5776,3.5744,3.574,3.5731,3.5701,3.5699,3.5709,3.5707,3.5707,3.5706,0,0,0,0,0,0,0,3.5886,3.5881,3.5834,3.5836,3.5833,3.5824,3.5819,3.5799,3.5771,3.5795,3.5793,3.5788,3.5743,3.5733,3.5729,3.5698,3.5709,3.5707,3.5706,3.5705,3.5656,3.5656,0,0,0,0,0,0,3.5893,3.5883,3.5835,3.5832,3.5858,3.5823,3.5817,3.5808,3.5771,3.5766,3.5788,3.5786,3.5737,3.5732,3.5727,3.5711,3.5707,3.5705,3.5703,3.5656,3.5656,3.5656,0,0,0,0,0,0,3.5894,3.5889,3.5837,3.5857,3.585,3.5822,3.5812,3.5807,3.5797,3.5766,3.5761,3.5783,3.5737,3.573,3.571,3.5709,3.5704,3.5702,3.5656,3.5656,3.5656,3.5678,0,0,0,0,0,0,3.5896,3.5889,3.5886,3.5857,3.5849,3.5823,3.5811,3.5806,3.5794,3.5792,3.576,3.5755,3.5736,3.5714,3.5708,3.5705,3.57,3.5656,3.5656,3.5656,3.5678,3.5679,3.5681,0,0,0,0,0,3.5899,3.5893,3.5886,3.588,3.5845,3.5823,3.5818,3.5798,3.5794,3.5789,3.577,3.5756,3.571,3.5712,3.5705,3.5702,3.5656,3.5656,3.5656,3.5677,3.5679,3.568,0,0,0,0,0,0,3.592,3.5889,3.5881,3.5866,3.5848,3.5819,3.5812,3.5801,3.5781,3.578,3.5754,3.5747,3.573,3.5714,3.5717,3.5688,3.5681,3.568,3.57,3.5701,3.5703,3.5706,3.5698,0,0,0,0,0,3.5923,3.591,3.5883,3.5873,3.5864,3.584,3.583,3.5816,3.5795,3.5787,3.5765,3.5744,3.5724,3.5712,3.5692,3.5675,3.5667,3.567,3.5671,3.5672,3.5671,3.5661,3.5661,3.5656,3.5656,3.5656,0,0,3.5929,3.5911,3.5904,3.5877,3.5861,3.5846,3.5834,3.5818,3.5807,3.5784,3.5764,3.5748,3.5722,3.5703,3.5694,3.5689,3.5671,3.5672,3.5674,3.5672,3.5661,3.5661,3.5662,3.5656,3.5656,3.5656,0,0,3.5933,3.5918,3.5908,3.5893,3.587,3.5854,3.5852,3.5824,3.5813,3.5794,3.5776,3.5761,3.5728,3.571,3.5697,3.5694,3.5681,3.5688,3.5695,3.5685,3.5686,3.5686,3.5684,3.5684,3.5688,3.5688,3.5688,0,3.5943,3.5923,3.5904,3.589,3.5878,3.5859,3.5848,3.5833,3.5804,3.5795,3.5791,3.575,3.5731,3.5708,3.5707,3.5697,3.5692,3.5692,3.5688,3.5688,3.5688,3.5686,3.5685,3.5689,3.5689,3.5689,3.5688,0,3.5936,3.5921,3.5916,3.5891,3.5878,3.5865,3.5843,3.5832,3.582,3.5804,3.5783,3.576,3.5736,3.5729,3.5716,3.5704,3.5702,3.5693,3.5685,3.569,3.5687,3.5687,3.569,3.569,3.569,3.5689,0,0,3.5951,3.5917,3.5915,3.5903,3.5876,3.5864,3.585,3.5828,3.5819,3.5799,3.5786,3.5759,3.5751,3.5736,3.572,3.5711,3.571,3.5703,3.5702,3.5705,3.5695,3.5701,3.5701,3.5702,3.5701,3.5701,3.5697,0,3.595,3.5927,3.591,3.5892,3.5878,3.586,3.5847,3.5828,3.5813,3.5797,3.5779,3.5761,3.5752,3.5742,3.5733,3.5713,3.5708,3.5713,3.5687,3.5686,3.5694,3.57,3.5707,3.5704,3.5696,3.5696,3.5696,0,3.5947,3.593,3.5912,3.5887,3.588,3.587,3.5848,3.5834,3.5812,3.5801,3.5785,3.5769,3.5752,3.5746,3.5721,3.5725,3.5713,3.5701,3.57,3.5697,3.5691,3.5696,3.5702,3.5702,3.5694,3.5694,3.5694,0,3.5959,3.5932,3.5917,3.5908,3.5879,3.5872,3.5859,3.5837,3.5825,3.5805,3.5797,3.5774,3.5762,3.5744,3.5723,3.5721,3.5699,3.5692,3.5688,3.5689,3.5684,3.5684,3.5688,3.5677,3.5677,3.5677,3.5677,0,3.596,3.5949,3.5923,3.5914,3.5901,3.588,3.5867,3.5852,3.5833,3.5819,3.5801,3.5788,3.5761,3.5744,3.5726,3.5708,3.5702,3.5692,3.5687,3.5693,3.5694,3.5684,3.5684,3.5677,3.5677,3.5677,3.5677,0,3.5972,3.5954,3.5936,3.5911,3.5904,3.5895,3.5872,3.5862,3.5846,3.5829,3.5823,3.5797,3.5777,3.5754,3.5724,3.5713,3.5695,3.5688,3.5703,3.57,3.5698,3.5698,3.5695,3.5693,3.5685,3.5685,3.5685,0,3.5973,3.5965,3.5939,3.593,3.5918,3.5903,3.5891,3.587,3.5858,3.5833,3.5825,3.5803,3.5785,3.5752,3.5729,3.5707,3.5699,3.57,3.5696,3.5702,3.5698,3.5699,3.5698,3.5701,3.5701,3.5701,3.5701,0,3.5978,3.597,3.5955,3.5936,3.5923,3.5907,3.589,3.5883,3.5859,3.5846,3.5826,3.5812,3.5783,3.5761,3.5736,3.572,3.5706,3.5703,3.5701,3.5707,3.5715,3.571,3.5706,3.5703,3.5703,3.5703,3.5703,3.5703,3.5984,3.5976,3.5956,3.594,3.5926,3.591,3.59,3.5883,3.5867,3.5843,3.5832,3.5811,3.5788,3.5753,3.5738,3.572,3.5716,3.5713,3.5712,3.5712,3.5713,3.5719,3.5716,3.5716,3.5716,3.5715,3.5715,0,3.5987,3.5974,3.596,3.5938,3.5924,3.5915,3.5896,3.5885,3.5868,3.5849,3.5832,3.5808,3.5787,3.5763,3.574,3.5731,3.5723,3.5725,3.5725,3.5721,3.5719,3.5723,3.5731,3.5731,3.5731,3.5731,3.5731,3.5731,3.5987,3.5973,3.5962,3.594,3.5926,3.5908,3.5898,3.5883,3.5868,3.5844,3.5827,3.5812,3.5791,3.5766,3.5746,3.5739,3.5731,3.5734,3.5725,3.5723,3.5722,3.572,3.5724,3.5733,3.5733,3.573,3.573,3.573]}]]